Time,TemperatureF,DewpointF,PressureIn,WindDirection,WindDirectionDegrees,WindSpeedMPH,WindSpeedGustMPH,Humidity,HourlyPrecipIn,Conditions,Clouds,dailyrainin,SoftwareType,DateUTC
2013-03-18 00:02:00,47.2,41.0,30.05,ENE,70,2.0,6.0,78,0.00,,,0.00,weatherlink.com 1.10,2013-03-18 04:02:00,
2013-03-18 00:18:00,46.8,41.0,30.05,North,9,2.0,7.0,79,0.00,,,0.00,weatherlink.com 1.10,2013-03-18 04:18:00,
2013-03-18 00:33:00,46.3,40.0,30.05,ESE,111,3.0,8.0,80,0.00,,,0.00,weatherlink.com 1.10,2013-03-18 04:33:00,
2013-03-18 00:48:00,46.1,40.0,30.05,East,96,0.0,5.0,80,0.00,,,0.00,weatherlink.com 1.10,2013-03-18 04:48:00,
2013-03-18 01:03:00,45.8,40.0,30.05,ENE,60,1.0,6.0,81,0.00,,,0.00,weatherlink.com 1.10,2013-03-18 05:03:00,
2013-03-18 01:18:00,45.1,40.0,30.06,NE,44,0.0,7.0,83,0.00,,,0.00,weatherlink.com 1.10,2013-03-18 05:18:00,
2013-03-18 01:33:00,44.6,40.0,30.06,NNE,25,1.0,8.0,83,0.00,,,0.00,weatherlink.com 1.10,2013-03-18 05:33:00,
2013-03-18 01:48:00,44.0,40.0,30.05,NE,34,7.0,7.0,85,0.00,,,0.00,weatherlink.com 1.10,2013-03-18 05:48:00,
2013-03-18 02:03:00,43.7,40.0,30.06,North,4,3.0,9.0,85,0.00,,,0.00,weatherlink.com 1.10,2013-03-18 06:03:00,
2013-03-18 02:18:00,43.3,39.0,30.07,NNE,23,2.0,6.0,86,0.00,,,0.00,weatherlink.com 1.10,2013-03-18 06:18:00,
2013-03-18 02:33:00,42.9,39.0,30.07,ENE,59,0.0,9.0,86,0.00,,,0.00,weatherlink.com 1.10,2013-03-18 06:33:00,
2013-03-18 02:48:00,42.7,39.0,30.06,East,93,1.0,5.0,87,0.00,,,0.00,weatherlink.com 1.10,2013-03-18 06:48:00,
2013-03-18 03:03:00,42.3,39.0,30.07,NE,47,3.0,7.0,88,0.00,,,0.00,weatherlink.com 1.10,2013-03-18 07:03:00,
2013-03-18 03:18:00,42.1,39.0,30.07,ENE,62,0.0,4.0,89,0.00,,,0.00,weatherlink.com 1.10,2013-03-18 07:18:00,
2013-03-18 03:33:00,41.9,39.0,30.07,NE,37,0.0,7.0,89,0.00,,,0.00,weatherlink.com 1.10,2013-03-18 07:33:00,
2013-03-18 03:48:00,41.5,39.0,30.07,East,81,0.0,7.0,90,0.00,,,0.00,weatherlink.com 1.10,2013-03-18 07:48:00,
2013-03-18 04:03:00,41.3,39.0,30.07,NE,50,0.0,5.0,90,0.00,,,0.00,weatherlink.com 1.10,2013-03-18 08:03:00,
2013-03-18 04:18:00,41.1,39.0,30.07,NE,50,0.0,5.0,91,0.00,,,0.00,weatherlink.com 1.10,2013-03-18 08:18:00,
2013-03-18 04:33:00,40.8,38.0,30.07,NE,54,0.0,5.0,91,0.00,,,0.00,weatherlink.com 1.10,2013-03-18 08:33:00,
2013-03-18 04:48:00,40.5,38.0,30.07,NNW,337,4.0,9.0,91,0.00,,,0.00,weatherlink.com 1.10,2013-03-18 08:48:00,
2013-03-18 05:03:00,40.4,38.0,30.07,NNE,31,1.0,7.0,92,0.00,,,0.00,weatherlink.com 1.10,2013-03-18 09:03:00,
2013-03-18 05:18:00,40.2,38.0,30.08,North,4,0.0,6.0,92,0.00,,,0.00,weatherlink.com 1.10,2013-03-18 09:18:00,
2013-03-18 05:33:00,40.1,38.0,30.08,North,8,1.0,10.0,92,0.00,,,0.00,weatherlink.com 1.10,2013-03-18 09:33:00,
2013-03-18 05:48:00,40.0,38.0,30.08,NE,35,5.0,9.0,92,0.00,,,0.00,weatherlink.com 1.10,2013-03-18 09:48:00,
2013-03-18 06:03:00,40.0,38.0,30.08,NNW,335,2.0,9.0,92,0.00,,,0.00,weatherlink.com 1.10,2013-03-18 10:03:00,
2013-03-18 06:18:00,39.9,38.0,30.08,East,83,0.0,5.0,92,0.00,,,0.00,weatherlink.com 1.10,2013-03-18 10:18:00,
2013-03-18 06:33:00,39.7,38.0,30.08,East,87,1.0,5.0,92,0.00,,,0.00,weatherlink.com 1.10,2013-03-18 10:33:00,
2013-03-18 06:48:00,39.5,38.0,30.09,ENE,73,0.0,5.0,93,0.00,,,0.00,weatherlink.com 1.10,2013-03-18 10:48:00,
2013-03-18 07:03:00,39.4,38.0,30.09,ENE,59,0.0,8.0,94,0.00,,,0.00,weatherlink.com 1.10,2013-03-18 11:03:00,
2013-03-18 07:18:00,39.1,38.0,30.08,NE,45,2.0,8.0,94,0.00,,,0.00,weatherlink.com 1.10,2013-03-18 11:18:00,
2013-03-18 07:33:00,39.0,38.0,30.10,NNE,16,0.0,5.0,95,0.00,,,0.00,weatherlink.com 1.10,2013-03-18 11:33:00,
2013-03-18 07:49:00,39.0,38.0,30.11,East,87,0.0,4.0,95,0.00,,,0.00,weatherlink.com 1.10,2013-03-18 11:49:00,
2013-03-18 08:04:00,39.0,38.0,30.10,NE,56,1.0,5.0,95,0.00,,,0.00,weatherlink.com 1.10,2013-03-18 12:04:00,
2013-03-18 08:19:00,39.0,38.0,30.10,East,90,1.0,5.0,95,0.00,,,0.00,weatherlink.com 1.10,2013-03-18 12:19:00,
2013-03-18 08:34:00,38.9,38.0,30.10,East,82,1.0,6.0,95,0.00,,,0.00,weatherlink.com 1.10,2013-03-18 12:34:00,
2013-03-18 08:49:00,38.9,38.0,30.10,North,8,3.0,4.0,95,0.00,,,0.00,weatherlink.com 1.10,2013-03-18 12:49:00,
2013-03-18 09:04:00,38.9,38.0,30.10,NE,56,0.0,4.0,96,0.00,,,0.00,weatherlink.com 1.10,2013-03-18 13:04:00,
2013-03-18 09:19:00,38.9,38.0,30.09,NE,38,0.0,5.0,95,0.00,,,0.00,weatherlink.com 1.10,2013-03-18 13:19:00,
2013-03-18 09:34:00,38.9,38.0,30.09,ENE,62,0.0,4.0,95,0.00,,,0.00,weatherlink.com 1.10,2013-03-18 13:34:00,
2013-03-18 09:49:00,38.9,38.0,30.09,North,354,1.0,4.0,95,0.00,,,0.00,weatherlink.com 1.10,2013-03-18 13:49:00,
2013-03-18 10:04:00,38.8,37.0,30.08,NE,35,0.0,6.0,94,0.00,,,0.00,weatherlink.com 1.10,2013-03-18 14:04:00,
2013-03-18 10:19:00,38.8,37.0,30.08,North,4,2.0,5.0,94,0.01,,,0.01,weatherlink.com 1.10,2013-03-18 14:19:00,
2013-03-18 10:34:00,38.8,37.0,30.10,NE,42,3.0,4.0,94,0.01,,,0.01,weatherlink.com 1.10,2013-03-18 14:34:00,
2013-03-18 10:49:00,38.9,37.0,30.09,ENE,60,0.0,5.0,94,0.01,,,0.01,weatherlink.com 1.10,2013-03-18 14:49:00,
2013-03-18 11:04:00,39.1,38.0,30.09,East,97,0.0,3.0,95,0.01,,,0.01,weatherlink.com 1.10,2013-03-18 15:04:00,
2013-03-18 11:19:00,39.1,37.0,30.09,NNE,25,1.0,5.0,93,0.00,,,0.01,weatherlink.com 1.10,2013-03-18 15:19:00,
2013-03-18 11:34:00,39.3,38.0,30.09,North,350,1.0,5.0,93,0.00,,,0.01,weatherlink.com 1.10,2013-03-18 15:34:00,
2013-03-18 11:49:00,39.5,38.0,30.08,East,82,0.0,3.0,93,0.00,,,0.01,weatherlink.com 1.10,2013-03-18 15:49:00,
2013-03-18 12:04:00,39.7,38.0,30.07,NNE,28,0.0,5.0,93,0.00,,,0.01,weatherlink.com 1.10,2013-03-18 16:04:00,
2013-03-18 12:19:00,40.1,39.0,30.07,NE,39,0.0,4.0,94,0.00,,,0.01,weatherlink.com 1.10,2013-03-18 16:19:00,
2013-03-18 12:34:00,40.1,38.0,30.07,North,350,2.0,5.0,93,0.00,,,0.01,weatherlink.com 1.10,2013-03-18 16:34:00,
2013-03-18 12:49:00,40.4,39.0,30.05,NE,35,1.0,4.0,93,0.00,,,0.01,weatherlink.com 1.10,2013-03-18 16:49:00,
2013-03-18 13:04:00,40.5,38.0,30.06,ENE,72,0.0,4.0,92,0.00,,,0.01,weatherlink.com 1.10,2013-03-18 17:04:00,
2013-03-18 13:19:00,40.8,38.0,30.05,ENE,71,4.0,4.0,91,0.00,,,0.01,weatherlink.com 1.10,2013-03-18 17:19:00,
2013-03-18 13:34:00,41.1,38.0,30.03,ESE,107,0.0,4.0,90,0.00,,,0.01,weatherlink.com 1.10,2013-03-18 17:34:00,
2013-03-18 13:49:00,41.5,39.0,30.01,East,99,0.0,4.0,90,0.00,,,0.01,weatherlink.com 1.10,2013-03-18 17:49:00,
2013-03-18 14:04:00,41.4,38.0,30.01,NNE,28,0.0,8.0,89,0.00,,,0.01,weatherlink.com 1.10,2013-03-18 18:04:00,
2013-03-18 14:19:00,41.4,39.0,30.01,ENE,71,1.0,6.0,90,0.00,,,0.01,weatherlink.com 1.10,2013-03-18 18:19:00,
2013-03-18 14:34:00,41.3,38.0,30.00,East,81,1.0,4.0,89,0.00,,,0.01,weatherlink.com 1.10,2013-03-18 18:34:00,
2013-03-18 14:49:00,41.3,39.0,29.99,ESE,105,0.0,6.0,90,0.00,,,0.01,weatherlink.com 1.10,2013-03-18 18:49:00,
2013-03-18 15:04:00,41.3,39.0,29.98,East,82,0.0,4.0,90,0.00,,,0.01,weatherlink.com 1.10,2013-03-18 19:04:00,
2013-03-18 15:19:00,41.4,39.0,29.97,NE,39,0.0,2.0,92,0.00,,,0.01,weatherlink.com 1.10,2013-03-18 19:19:00,
2013-03-18 15:34:00,41.1,39.0,29.97,ENE,66,0.0,4.0,92,0.01,,,0.02,weatherlink.com 1.10,2013-03-18 19:34:00,
2013-03-18 15:49:00,40.7,39.0,29.96,NE,43,0.0,4.0,93,0.01,,,0.02,weatherlink.com 1.10,2013-03-18 19:49:00,
2013-03-18 16:04:00,40.6,39.0,29.95,NE,50,0.0,3.0,94,0.01,,,0.02,weatherlink.com 1.10,2013-03-18 20:04:00,
2013-03-18 16:19:00,40.5,39.0,29.95,NE,45,1.0,3.0,94,0.01,,,0.02,weatherlink.com 1.10,2013-03-18 20:19:00,
2013-03-18 16:34:00,40.4,39.0,29.95,NE,46,0.0,3.0,95,0.00,,,0.02,weatherlink.com 1.10,2013-03-18 20:34:00,
2013-03-18 16:49:00,40.4,39.0,29.96,NNE,26,2.0,3.0,95,0.01,,,0.03,weatherlink.com 1.10,2013-03-18 20:49:00,
2013-03-18 17:04:00,40.3,39.0,29.94,ESE,106,0.0,4.0,95,0.01,,,0.03,weatherlink.com 1.10,2013-03-18 21:04:00,
2013-03-18 17:19:00,40.2,39.0,29.95,ESE,109,3.0,3.0,95,0.01,,,0.03,weatherlink.com 1.10,2013-03-18 21:19:00,
2013-03-18 17:34:00,40.3,39.0,29.94,ESE,111,0.0,2.0,96,0.01,,,0.03,weatherlink.com 1.10,2013-03-18 21:34:00,
2013-03-18 17:49:00,40.2,39.0,29.96,ENE,62,1.0,4.0,95,0.01,,,0.04,weatherlink.com 1.10,2013-03-18 21:49:00,
2013-03-18 18:04:00,40.2,39.0,30.00,North,4,0.0,4.0,96,0.01,,,0.04,weatherlink.com 1.10,2013-03-18 22:04:00,
2013-03-18 18:19:00,40.0,39.0,29.99,ESE,118,3.0,5.0,96,0.01,,,0.04,weatherlink.com 1.10,2013-03-18 22:19:00,
2013-03-18 18:34:00,39.9,39.0,29.96,ESE,108,2.0,5.0,96,0.02,,,0.05,weatherlink.com 1.10,2013-03-18 22:34:00,
2013-03-18 18:49:00,39.8,39.0,29.96,NE,52,2.0,3.0,96,0.01,,,0.05,weatherlink.com 1.10,2013-03-18 22:49:00,
2013-03-18 19:04:00,40.0,39.0,29.98,WNW,288,0.0,4.0,97,0.02,,,0.06,weatherlink.com 1.10,2013-03-18 23:04:00,
2013-03-18 19:19:00,39.8,39.0,29.97,NW,324,0.0,4.0,96,0.03,,,0.07,weatherlink.com 1.10,2013-03-18 23:19:00,
2013-03-18 19:34:00,39.9,39.0,29.94,ESE,118,1.0,5.0,97,0.03,,,0.08,weatherlink.com 1.10,2013-03-18 23:34:00,
2013-03-18 19:50:00,40.0,39.0,29.95,NE,46,0.0,3.0,97,0.05,,,0.10,weatherlink.com 1.10,2013-03-18 23:50:00,
2013-03-18 20:04:00,40.0,39.0,29.96,ESE,121,0.0,5.0,97,0.05,,,0.11,weatherlink.com 1.10,2013-03-19 00:04:00,
2013-03-18 20:19:00,40.0,39.0,29.97,ESE,123,0.0,3.0,97,0.05,,,0.12,weatherlink.com 1.10,2013-03-19 00:19:00,
2013-03-18 20:34:00,39.9,39.0,29.95,SE,127,1.0,5.0,97,0.06,,,0.14,weatherlink.com 1.10,2013-03-19 00:34:00,
2013-03-18 20:49:00,39.9,39.0,29.95,WSW,253,0.0,5.0,97,0.05,,,0.15,weatherlink.com 1.10,2013-03-19 00:49:00,
2013-03-18 21:04:00,39.9,39.0,29.91,SSE,160,0.0,2.0,97,0.05,,,0.16,weatherlink.com 1.10,2013-03-19 01:04:00,
2013-03-18 21:19:00,39.9,39.0,29.89,SSE,154,1.0,3.0,97,0.06,,,0.18,weatherlink.com 1.10,2013-03-19 01:19:00,
2013-03-18 21:34:00,40.1,39.0,29.92,WNW,303,2.0,5.0,97,0.05,,,0.19,weatherlink.com 1.10,2013-03-19 01:34:00,
2013-03-18 21:49:00,40.2,39.0,29.92,NW,324,0.0,3.0,97,0.05,,,0.20,weatherlink.com 1.10,2013-03-19 01:49:00,
2013-03-18 22:05:00,40.1,39.0,29.92,North,354,1.0,2.0,97,0.06,,,0.22,weatherlink.com 1.10,2013-03-19 02:05:00,
2013-03-18 22:20:00,40.1,39.0,29.91,North,359,0.0,2.0,97,0.05,,,0.23,weatherlink.com 1.10,2013-03-19 02:20:00,
2013-03-18 22:35:00,40.2,39.0,29.91,North,359,0.0,1.0,97,0.05,,,0.24,weatherlink.com 1.10,2013-03-19 02:35:00,
2013-03-18 22:50:00,40.2,39.0,29.91,ENE,77,1.0,3.0,97,0.05,,,0.25,weatherlink.com 1.10,2013-03-19 02:50:00,
2013-03-18 23:05:00,40.2,39.0,29.91,East,89,2.0,3.0,97,0.04,,,0.26,weatherlink.com 1.10,2013-03-19 03:05:00,
2013-03-18 23:20:00,40.1,39.0,29.91,ENE,73,2.0,4.0,97,0.04,,,0.27,weatherlink.com 1.10,2013-03-19 03:20:00,
2013-03-18 23:35:00,40.0,39.0,29.90,East,92,1.0,5.0,96,0.04,,,0.28,weatherlink.com 1.10,2013-03-19 03:35:00,
2013-03-18 23:50:00,40.1,39.0,29.91,East,92,0.0,2.0,97,0.04,,,0.29,weatherlink.com 1.10,2013-03-19 03:50:00,